Overview Statistics Trail Chart Weather Telemetry Raw packets
 

This is the latest recevied weather packets stored in our database for station/object EA7OC-10. If no packets are shown the sender has not sent any weather packets the latest 10 day(s).

<< 25 26 27 28 29 30 31 >>
Time Temp. Humidity Pressure Rain* Wind** Luminosity Snow
1788001660 36.67° C 29% 1020.2 hPa - - - -
1788000760 35° C 28% 1020.2 hPa - - - -
1787999860 33.89° C 30% 1020.5 hPa - - - -
1787998960 31.67° C 28% 1020.5 hPa - - - -
1787998060 32.78° C 28% 1020.6 hPa - - - -
1787997160 31.67° C 28% 1020.5 hPa - - - -
1787996260 31.11° C 28% 1020.7 hPa - - - -
1787995359 31.67° C 27% 1020.6 hPa - - - -
1787993580 34.44° C 28% 1020.7 hPa - - - -
1787992680 33.89° C 28% 1020.7 hPa - - - -
1787991780 34.44° C 28% 1020.6 hPa - - - -
1787990880 33.89° C 29% 1020.5 hPa - - - -
1787989980 32.22° C 30% 1020.5 hPa - - - -
1787989080 31.11° C 29% 1020.3 hPa - - - -
1787988180 29.44° C 30% 1020.3 hPa - - - -
1787987280 27.78° C 31% 1020.2 hPa - - - -
1787986380 25.56° C 32% 1020.2 hPa - - - -
1787985479 22.22° C 33% 1020.3 hPa - - - -
1787984579 17.78° C 30% 1020 hPa - - - -
1787983679 16.67° C 29% 1019.8 hPa - - - -
1787982779 16.11° C 29% 1019.7 hPa - - - -
1787981879 16.11° C 29% 1019.7 hPa - - - -
1787980979 16.67° C 29% 1019.7 hPa - - - -
1787980079 16.67° C 29% 1019.6 hPa - - - -
1787979179 17.22° C 28% 1019.5 hPa - - - -

* Rain since midnight (hover to see other rain measurements)
** Current wind speed in m/s (hover to see current wind gust speed)